User: anonymous   Login
Location: Caltech
(34.1382°N, 118.1253°W)
Time: 13:47:09
(UTC-07:00)
Language:

Cosmos 1626 - Orbit

View from above orbital plane
View from above orbital plane
View from above satellite
View from above satellite

Ground track
Ground track

The orbit data is extracted from the following two-line orbital elements,

1 15494U 85009A   15089.76282427  .00008120  00000-0  39299-3 0  9992
2 15494 082.4840 337.5320 0003209 030.0139 031.2764 15.18436780645757
Epoch (UTC): 30 March 2015 18:18:28
Eccentricity: 0.0003209
inclination: 82.4840°
perigee height: 508 km
apogee height: 513 km
right ascension of ascending node: 337.5320°
argument of perigee: 30.0139°
revolutions per day: 15.18436780
mean anomaly at epoch: 31.2764°
orbit number at epoch: 64575

The dashed part of the orbit path shows where the satellite is in the earth's shadow,  

DLR